Flag for Madagascar Weather past 2 weeks in Toamasina, Madagascar

Now
82 °F

Scattered clouds.


Feels Like: 88 °F
Forecast: 74 / 83 °F
Wind: 7 mph from South

Location: Tamatave


UV Index: 5 (Moderate)

Visibility: N/A


Pressure: 29.92 "Hg

Humidity: 74%

Dew point: 73 °F

Location of ToamasinaLocation

Historic Weather in Toamasina

°F

Toamasina temperature yesterday

Maximum temperature yesterday: 86 °F (at 11:00 AM)
Minimum temperature yesterday: 73 °F (at 5:00 AM)
Average temperature yesterday: 79 °F

Past Weeks' High & Low Weather Summary

 TemperatureHumidityPressure
High90 °F (Apr 7, 10:00 AM)100% (Apr 5, 9:00 PM)30.15 "Hg (Apr 5, 9:00 PM)
Low68 °F (Apr 6, 5:00 AM)55% (Apr 7, 10:00 AM)29.74 "Hg (Apr 6, 2:00 PM)
Average77 °F86%29.99 "Hg
* Reported Apr 5 3:00 PM — Apr 20 3:00 PM, Toamasina, Weather by CustomWeather, © 2014

Note: Actual official high and low records may vary slightly from our data, if they occured in-between our weather recording intervals... More about our weather records

Advertising

Historic Weather Conditions — Data for Previous 24 hours

 ConditionsComfort  
Time TempWeatherWind HumidityBarometerVisibility
3:00 PM
Apr 20
84 °FScattered clouds.9 mph74%29.95 "HgN/A
2:00 PM86 °FScattered clouds.9 mph66%29.95 "HgN/A
1:00 PM86 °FScattered clouds.9 mph66%29.98 "HgN/A
12:00 PM86 °FPartly sunny.12 mph66%29.98 "HgN/A
11:00 AM84 °FPartly sunny.12 mph62%30.01 "HgN/A
10:00 AM84 °FPartly sunny.9 mph70%30.04 "HgN/A
9:00 AM81 °FScattered clouds.9 mph79%30.04 "HgN/A
8:00 AM77 °FScattered clouds.2 mph89%30.04 "HgN/A
7:00 AM73 °FScattered showers. Broken clouds.2 mph94%30.04 "HgN/A
6:00 AM73 °FScattered showers. Scattered clouds.No wind94%30.01 "HgN/A
5:00 AM73 °FPassing clouds.No wind94%30.01 "HgN/A
4:00 AM73 °FPassing clouds.No wind100%29.98 "HgN/A
3:00 AM73 °FPassing clouds.No wind100%30.01 "HgN/A
2:00 AM73 °FPassing clouds.No wind94%30.01 "HgN/A
1:00 AM73 °FPassing clouds.No wind94%30.04 "HgN/A
12:00 AM73 °FPassing clouds.No wind100%30.04 "HgN/A
11:00 PM
Apr 19
73 °FPassing clouds.No wind100%30.07 "HgN/A
10:00 PM75 °FPassing clouds.No wind94%30.07 "HgN/A
9:00 PM75 °FPassing clouds.No wind100%30.07 "HgN/A
8:00 PM77 °FPassing clouds.No wind94%30.07 "HgN/A
7:00 PM79 °FPassing clouds.No wind89%30.04 "HgN/A
6:00 PM81 °FPassing clouds.No wind84%30.04 "HgN/A
5:00 PM82 °FBroken clouds.5 mph79%30.01 "HgN/A
4:00 PM82 °FBroken clouds.5 mph79%30.01 "HgN/A
Weather by CustomWeather, © 2014

See weather overview